Regional Weather Roundup
Issued by NWS Northern Indiana

Home | Current Version | Previous Version | Text Only | Print | Product List | Glossary On
Versions: 1 2 3 4 5 6 7 8 9 10 11 12 13 14 15 16 17 18 19 20 21 22 23 24 25 26 27 28 29 30 31 32 33 34 35 36 37 38 39 40 41 42 43 44 45 46 47 48 49 50
000
ASUS43 KIWX 242100
RWRIWX

KIWX WEATHER ROUNDUP
NATIONAL WEATHER SERVICE NORTHERN INDIANA
500 PM EDT SUN JUL 24 2016

NOTE: "FAIR" INDICATES FEW OR NO CLOUDS BELOW 12,000 FEET WITH NO
SIGNIFICANT WEATHER AND/OR OBSTRUCTIONS TO VISIBILITY.

* THESE STATIONS ARE NOT UNDER NWS QUALITY CONTROL. THEY ALSO MAY NOT
  REPORT WEATHER SUCH AS PRECIPITATION OR FOG.

INZ001>027-242200-
NORTHERN INDIANA

CITY           SKY/WX    TMP DP  RH WIND       PRES   REMARKS
GARY*          PTSUNNY   91 N/A N/A S15       29.88S
KNOX*          CLOUDY    88  66  48 S14       29.90F
SOUTH BEND     MOSUNNY   88  77  69 S13       29.91F HX 100
ELKHART*       CLOUDY    88  81  79 S21       29.92S HX 105
GOSHEN         MOSUNNY   90  74  59 SW13      29.91F HX  99
ANGOLA*          N/A     88  82  84 SW13      29.94S HX 108
FORT WAYNE     CLOUDY    90  74  59 SW12      29.96S HX  99
PERU/GRISSOM   CLOUDY    90  76  64 SW12      29.94F HX 102

$$
INZ028>050-242200-
CENTRAL INDIANA

CITY           SKY/WX    TMP DP  RH WIND       PRES   REMARKS
LAFAYETTE      CLOUDY    89  77  67 SW9       29.93F HX 101
KOKOMO*        CLOUDY    93  75  55 SW16      29.95F HX 104
MUNCIE*        CLOUDY    92  74  55 SW9G18    29.97S HX 101
INDIANAPOLIS   PTSUNNY   91  75  59 SW14      29.97S HX 101

$$
MIZ043>046-050>051-056>058-064>065-071>073-077>080-242200-
SOUTHWEST LOWER MICHIGAN

CITY           SKY/WX    TMP DP  RH WIND       PRES   REMARKS
BATTLE CREEK   CLOUDY    84  77  79 SW16      29.91F
BENTON HARBOR  CLOUDY    90  76  63 S13G20    29.87F HX 101
COLDWATER*     CLOUDY    85  75  72 SW8       29.92F
HOLLAND        CLOUDY    89  77  67 S18G25    29.86F HX 101
GRAND RAPIDS   PTSUNNY   87  75  67 SW17G26   29.87F HX  96
KALAMAZOO      CLOUDY    88  76  67 S10       29.90F HX  99
STURGIS*       CLOUDY    87  76  70 SW14G20   29.91S HX  97
THREE RIVERS*  FAIR      89  74  62 SW16      29.91S HX  98

$$
OHZ001>008-015>018-024>025-242200-
NORTHWEST OHIO

CITY           SKY/WX    TMP DP  RH WIND       PRES   REMARKS
DEFIANCE       CLOUDY    89  71  55 S12       29.93F HX  95
FINDLAY        CLOUDY    86  69  56 S13       29.95F
TOLEDO EXPRESS CLOUDY    78  75  90 S5        29.94S
TOLEDO METCALF MOSUNNY   79  73  82 S6        29.95R
LIMA           PTSUNNY   85  72  65 SE14      29.98F

$$
AND FOR LAKE MICHIGAN COASTAL AND OPEN LAKE BUOY OBSERVATIONS

STATION/POSITION TEMP    WIND        PRES    VSBY  WAVE
                 AIR SEA DIR/SP/G                  HT/PER
                 (F)     (DEG/KT/KT) (MB)    (MI)  (FT/S)
CALUMET HARBOR    89     180/ 11/ 16 1010.9F
MICHIGAN CITY     87     170/ 17/ 20   N/A
BURNS HARBOR      88     190/ 11/ 21 1011.9F
SAINT JOSEPH      86     210/ 11/ 15 1012.5F
SOUTH LAKE BUOY   76 72  150/ 17/ 19 1009.4          3/ 5
4 MI NW BRIDGMAN  80 74  180/ 10/ 12 1011.3F         2/ 3
MICHIGAN CITY     83 74  200/ 12/ 16   N/A           2/ 2

$$
&&



USA.gov is the U.S. government's official web portal to all federal, state and local government web resources and services.